{"data":{"norad_id":57101,"epoch":"2026-09-20T16:26:29.093280Z","epoch_age_seconds":104918,"freshness":"FRESH","line1":"1 57101U 23090A   26263.68505895  .00000086  00000+0  12656-4 0  9990","line2":"2 57101  43.0019 260.3962 0001673 265.3647  94.7014 15.27578144180155","mean_motion":15.27578144,"eccentricity":0.0001673,"inclination_deg":43.0019,"raan_deg":260.3962,"arg_perigee_deg":265.3647,"mean_anomaly_deg":94.7014,"bstar":1.2656e-5,"rev_number":18015,"period_min":94.266863247292,"perigee_km":481.90677621333,"apogee_km":484.20253094062,"semimajor_km":6861.191653577,"source":"CELESTRAK","updated_at":"2026-09-21T09:00:33.557822Z"}}